Quincy, IL

1:56 AM CST on February 21, 2018 (GMT -0600)
Quincy Regional-Baldwin

Weather History for KUIN - September, 2012

Change the Weather History Date:

Monday, September 17, 2012

  Actual Average Record
Temperature  
Mean Temperature 64 °F 66 °F  
Max Temperature 77 °F 77 °F 99 °F (1927)
Min Temperature 50 °F 55 °F 39 °F (1903)
Degree Days  
Heating Degree Days 1 3  
Month to date heating degree days 20 23  
Since 1 July heating degree days 20 28  
Cooling Degree Days 0 4  
Month to date cooling degree days 102 92  
Year to date cooling degree days 1549 1045  
Growing Degree Days 14 (Base 50)    
Moisture  
Dew Point 57 °F    
Average Humidity 80    
Maximum Humidity 100    
Minimum Humidity 60    
Precipitation  
Precipitation 0.04 in 0.11 in 2.32 in (1944)
Month to date precipitation 1.38 1.86  
Year to date precipitation 17.01 27.61  
Sea Level Pressure  
Sea Level Pressure 29.91 in    
Wind  
Wind Speed 7 mph (WNW)    
Max Wind Speed 26 mph    
Max Gust Speed 35 mph    
Visibility 5 miles    
Events Fog , Rain    
T = Trace of Precipitation, MM = Missing Value Source: NWS Daily Summary

Daily Weather History Graph

Daily Weather History Graph

Search for Another Location

Airport or City:

Trip Planner

Search our weather history database for the weather conditions in past years. The results will help you decide how hot, cold, wet, or windy it might be!

Date:

Astronomy

Sep. 17, 2012 Rise Set
Actual Time 6:48 AM CDT 7:09 PM CDT
Civil Twilight 6:21 AM CDT 7:36 PM CDT
Nautical Twilight 5:49 AM CDT 8:08 PM CDT
Astronomical Twilight 5:16 AM CDT 8:40 PM CDT
Moon 8:37 AM CDT (9/17) 7:51 PM CDT (9/17)
Length of Visible Light 13h 15m
Length of Day
12h 21m
Waxing Crescent, 3% of the Moon is Illuminated
Sep 17
Waxing Crescent
Sep 22
First Quarter
Sep 29
Full
Oct 8
Last Quarter
Oct 15
New

Hourly Weather History & Observations

Time (CDT) Temp. Dew Point Humidity Pressure Visibility Wind Dir Wind Speed Gust Speed Precip Events Conditions
12:54 AM 57.9 °F 55.9 °F 93% 29.97 in 5.0 mi South 4.6 mph - N/A   Clear
1:54 AM 59.0 °F 57.0 °F 93% 29.97 in 4.0 mi South 3.5 mph - N/A   Clear
2:54 AM 61.0 °F 59.0 °F 93% 29.94 in 4.0 mi Calm Calm - N/A   Clear
3:09 AM 60.8 °F 57.2 °F 88% 29.95 in 2.0 mi Calm Calm - N/A   Clear
3:16 AM 59.0 °F 57.2 °F 94% 29.95 in 1.8 mi South 3.5 mph - N/A   Clear
3:24 AM 59.0 °F 57.2 °F 94% 29.94 in 2.5 mi South 3.5 mph - N/A   Clear
3:51 AM 59.0 °F 57.2 °F 94% 29.94 in 1.0 mi South 3.5 mph - N/A   Clear
3:54 AM 59.0 °F 57.2 °F 94% 29.94 in 0.8 mi South 3.5 mph - N/A   Clear
4:07 AM 59.0 °F 57.2 °F 94% 29.93 in 0.8 mi Calm Calm - N/A   Mist
4:25 AM 59.0 °F 57.2 °F 94% 29.93 in 0.2 mi Calm Calm - N/A Fog Fog
4:54 AM 57.9 °F 57.0 °F 97% 29.91 in 0.2 mi Calm Calm - N/A Fog Fog
5:54 AM 59.0 °F 57.9 °F 96% 29.91 in 0.2 mi South 4.6 mph - N/A Fog Fog
6:32 AM 59.0 °F 57.2 °F 94% 29.92 in 0.5 mi Calm Calm - N/A Fog Fog
6:54 AM 57.2 °F 57.2 °F 100% 29.92 in 0.5 mi Calm Calm - N/A Fog Fog
7:01 AM 57.2 °F 57.2 °F 100% 29.92 in 0.2 mi Calm Calm - N/A Fog Fog
7:08 AM 59.0 °F 57.2 °F 94% 29.92 in 0.5 mi Calm Calm - N/A Fog Fog
7:15 AM 59.0 °F 57.2 °F 94% 29.93 in 2.5 mi Calm Calm - N/A   Overcast
7:23 AM 59.0 °F 57.2 °F 94% 29.93 in 4.0 mi Calm Calm - N/A   Overcast
7:39 AM 60.8 °F 59.0 °F 94% 29.93 in 3.0 mi Calm Calm - N/A   Overcast
7:54 AM 60.1 °F 59.0 °F 96% 29.92 in 4.0 mi Calm Calm - N/A   Overcast
8:12 AM 60.8 °F 60.8 °F 100% 29.93 in 2.5 mi SSW 3.5 mph - N/A   Overcast
8:38 AM 60.8 °F 60.8 °F 100% 29.93 in 3.0 mi Calm Calm - N/A   Overcast
8:45 AM 60.8 °F 60.8 °F 100% 29.93 in 3.0 mi Calm Calm - N/A   Overcast
8:54 AM 62.1 °F 61.0 °F 96% 29.92 in 4.0 mi Calm Calm - N/A   Overcast
9:54 AM 64.0 °F 62.1 °F 93% 29.92 in 4.0 mi Calm Calm - N/A   Overcast
10:54 AM 68.0 °F 64.0 °F 87% 29.91 in 10.0 mi SW 3.5 mph - N/A   Overcast
11:54 AM 72.0 °F 63.0 °F 73% 29.87 in 10.0 mi Calm Calm - N/A   Mostly Cloudy
12:54 PM 73.9 °F 63.0 °F 68% 29.86 in 10.0 mi West 4.6 mph - N/A   Partly Cloudy
1:54 PM 75.0 °F 62.1 °F 64% 29.85 in 10.0 mi Variable 5.8 mph - N/A   Overcast
2:54 PM 75.0 °F 62.1 °F 64% 29.82 in 10.0 mi West 4.6 mph - N/A   Overcast
3:54 PM 75.9 °F 62.1 °F 62% 29.79 in 10.0 mi West 5.8 mph - N/A   Partly Cloudy
4:54 PM 75.9 °F 61.0 °F 60% 29.77 in 10.0 mi WSW 8.1 mph - N/A   Partly Cloudy
5:49 PM 66.2 °F 59.0 °F 78% 29.83 in 10.0 mi NNW 20.7 mph 27.6 mph 0.00 in Rain Light Rain
5:54 PM 66.0 °F 59.0 °F 78% 29.83 in 10.0 mi NNW 20.7 mph 28.8 mph 0.00 in   Overcast
6:54 PM 62.1 °F 57.0 °F 84% 29.83 in 10.0 mi North 20.7 mph 25.3 mph 0.04 in   Mostly Cloudy
7:54 PM 57.9 °F 55.0 °F 90% 29.86 in 10.0 mi North 15.0 mph 23.0 mph N/A   Overcast
8:49 PM 57.2 °F 53.6 °F 88% 29.89 in 10.0 mi NNW 15.0 mph - N/A   Overcast
8:54 PM 57.9 °F 54.0 °F 87% 29.90 in 10.0 mi NNW 16.1 mph 23.0 mph N/A   Overcast
9:41 PM 55.4 °F 50.0 °F 82% 29.92 in 10.0 mi North 21.9 mph 27.6 mph N/A   Overcast
9:50 PM 55.4 °F 48.2 °F 77% 29.92 in 10.0 mi North 19.6 mph - N/A   Mostly Cloudy
9:54 PM 55.0 °F 48.0 °F 77% 29.92 in 10.0 mi North 17.3 mph 24.2 mph N/A   Scattered Clouds
10:54 PM 53.1 °F 46.9 °F 80% 29.93 in 10.0 mi NNW 11.5 mph - N/A   Clear
11:54 PM 51.1 °F 48.0 °F 89% 29.92 in 10.0 mi NNW 9.2 mph - N/A   Clear